Вернуться в каталог

STARLINK-11517

АктивенСвязьVLEO
NORAD 62559·PAYLOAD·🇺🇸 United States

Запущен Jan 10, 2025 с Cape Canaveral Space Force Station

Loading…

Ближайшие Пролёты (ближайшие 24 часа)

TLE

СвежийSource: CelesTrak SupGP

Эпоха: Sep 14, 2026, 14:53 UTC

1 62559C 25006F   26257.62062500  .00009493  00000+0  73740-4 0  2579
2 62559  43.0005  81.1645 0001648 261.0950 162.6206 15.70829936    12

Отслеживайте STARLINK-11517 в реальном времени с AllMySat

Download on the App Store